User: anonymous   Login
Location: Ariel
(45.9570°N, 122.5700°W)
Time: 14:38:48
(UTC-07:00)
Language:

ISS - Orbit

View from above orbital plane
View from above orbital plane
View from above satellite
View from above satellite

Ground track
Ground track

The orbit data is extracted from the following two-line orbital elements,

1 25544U 98067A   20274.55171330  .00016717  00000-0  10270-3 0  9029
2 25544  51.6436 187.1176 0001178 105.0713 255.0568 15.48839673  8342
Epoch (UTC): 30 September 2020 13:14:28
Eccentricity: 0.0001178
inclination: 51.6436°
perigee height: 419 km
apogee height: 421 km
right ascension of ascending node: 187.1176°
argument of perigee: 105.0713°
revolutions per day: 15.48839673
mean anomaly at epoch: 255.0568°
orbit number at epoch: 834

The dashed part of the orbit path shows where the satellite is in the earth's shadow,  

DLR